Аэропорт Баку (UBBB)

baku-airport

Международный аэропорт Баку

ICAO: UBBB, IATA: GYD

Бакинский международный аэропорт имени Гейдара Алиева — один из пяти международных аэропортов, обслуживающих Азербайджан. Находится в 25 километрах к востоку от Баку. Порт приписки национальной авиакомпании «Азербайджанские авиалинии».

Принимаемые типы ВС
Ан-12, Ан-24, Ан-26, Ан-28, Ан-30, Ан-32, Ан-72, Ан-74, Ан-124(по согласованию), Ил-62, Ил-76, Ту-134, Ту-154, Як-40, Як-42, Airbus A319, Airbus A320, Airbus A321, Boeing 737, Boeing 747, Boeing 757, Boeing 767 и др. типы ВС 3-4 класса, вертолёты всех типов.

 Схемы: Jeppesen

Сценарии: бесплатные демо-версии с уменьшенным разрешением:

 fs9     fsx     Prepar

платные: http://www.drzewiecki-design.net/

METAR:

UBBB 060130Z 17004KT 3000 BR BCFG NSC 00/00 Q1020 R16/CLRD// R17/190068 TEMPO 1200 BR BCFG NSC

TAF AMD UBBB 052237Z 0522/0618 16006KT 1200 BR NSC TX10/0610Z TN03/0603Z TEMPO 0522/0604 VRB04KT 0600 FG SCT002 BECMG 0604/0606 18016KT 9999 NSW TEMPO 0611/0618 19022G32KT SCT015